Flag for Japan Weather past 2 weeks in Himeji, Japan

Now
84 °F

Partly cloudy.


Feels Like: 94 °F
Forecast: 74 / 93 °F
Wind: 2 mph from North

Location: Kansai International Airport

Current Time: Jul 25, 2014 at 1:00:36 AM

Latest Report: Jul 25, 2014 at 12:00 AM


Visibility: N/A

Pressure: 29.80 "Hg

Humidity: 79%

Dew point: 77 °F

Location of HimejiLocation

Historic Weather in Himeji — Graph

°F

Himeji temperature yesterday

Maximum temperature yesterday: 93 °F (at 5:00 PM)
Minimum temperature yesterday: 79 °F (at 12:30 AM)
Average temperature yesterday: 85 °F

Past Weeks' High & Low Weather Summary

 TemperatureHumidityPressure
High93 °F (Jul 24, 5:00 PM)100% (Jul 14, 5:30 AM)29.95 "Hg (Jul 14, 5:30 AM)
Low73 °F (Jul 12, 4:00 AM)48% (Jul 12, 11:00 PM)29.18 "Hg (Jul 10, 4:00 PM)
Average81 °F77%29.75 "Hg
* Reported Jul 9 11:00 PM — Jul 24 11:30 PM, Himeji, Weather by CustomWeather, © 2014

Note: Actual official high and low records may vary slightly from our data, if they occured in-between our weather recording intervals... More about our weather records

Advertising

Himeji weather history for previous 24 hours

 ConditionsComfort  
Time TempWeatherWind HumidityBarometerVisibility
11:30 PM
Jul 24
84 °FPartly cloudy.5 mph79%29.80 "HgN/A
11:00 PM84 °FPartly cloudy.3 mph74%29.80 "HgN/A
10:30 PM82 °FPassing clouds.5 mph84%29.77 "HgN/A
10:00 PM82 °FPassing clouds.5 mph84%29.77 "HgN/A
9:30 PM82 °FPassing clouds.6 mph84%29.77 "HgN/A
9:00 PM84 °FPassing clouds.6 mph74%29.77 "HgN/A
8:30 PM84 °FPassing clouds.6 mph74%29.77 "HgN/A
8:00 PM84 °FPassing clouds.8 mph74%29.74 "HgN/A
7:30 PM86 °FPassing clouds.8 mph70%29.74 "HgN/A
7:00 PM86 °FPassing clouds.9 mph70%29.74 "HgN/A
6:30 PM88 °FPassing clouds.9 mph66%29.71 "HgN/A
6:00 PM88 °FPassing clouds.6 mph66%29.71 "HgN/A
5:30 PM90 °FPassing clouds.8 mph67%29.71 "HgN/A
5:00 PM93 °FPassing clouds.5 mph49%29.71 "HgN/A
4:30 PM90 °FPassing clouds.5 mph67%29.71 "HgN/A
4:00 PM90 °FScattered clouds.5 mph67%29.71 "HgN/A
3:30 PM90 °FScattered clouds.6 mph67%29.71 "HgN/A
2:30 PM90 °FScattered clouds.6 mph67%29.71 "HgN/A
2:00 PM90 °FScattered clouds.6 mph63%29.71 "HgN/A
1:30 PM88 °FScattered clouds.7 mph66%29.71 "HgN/A
1:00 PM90 °FPartly sunny.7 mph63%29.71 "HgN/A
12:30 PM88 °FPartly sunny.7 mph70%29.74 "HgN/A
11:30 AM90 °FPartly sunny.7 mph63%29.74 "HgN/A
11:00 AM88 °FPartly sunny.5 mph70%29.74 "HgN/A
10:30 AM88 °FPartly sunny.6 mph66%29.74 "HgN/A
10:00 AM86 °FPartly sunny.7 mph70%29.74 "HgN/A
9:30 AM86 °FPartly sunny.7 mph70%29.74 "HgN/A
9:00 AM88 °FPartly sunny.7 mph66%29.74 "HgN/A
8:30 AM86 °FPartly sunny.7 mph70%29.74 "HgN/A
8:00 AM86 °FPartly sunny.8 mph70%29.74 "HgN/A
7:30 AM84 °FPartly sunny.8 mph74%29.71 "HgN/A
7:00 AM84 °FPartly sunny.7 mph74%29.71 "HgN/A
6:30 AM82 °FPartly sunny.7 mph79%29.71 "HgN/A
6:00 AM82 °FPartly sunny.7 mph79%29.71 "HgN/A
5:30 AM81 °FPartly sunny.7 mph84%29.71 "HgN/A
5:00 AM79 °FPartly cloudy.6 mph89%29.71 "HgN/A
4:30 AM81 °FPassing clouds.6 mph84%29.71 "HgN/A
4:00 AM81 °FPartly cloudy.5 mph89%29.71 "HgN/A
3:30 AM79 °FPassing clouds.5 mph94%29.68 "HgN/A
3:00 AM79 °FPartly cloudy.5 mph94%29.71 "HgN/A
2:30 AM79 °FPassing clouds.5 mph89%29.68 "HgN/A
2:00 AM79 °FPassing clouds.7 mph89%29.68 "HgN/A
1:30 AM79 °FPassing clouds.7 mph94%29.71 "HgN/A
1:00 AM79 °FPassing clouds.8 mph89%29.71 "HgN/A
Weather by CustomWeather, © 2014

See weather overviewHow to use our weather pages